Location: St. Louis
(38.6270°N, 90.1994°W)
Time: 10:14:49
(UTC-06:00)

Vanguard 2 Rocket - Pass Details

Date: 02 December 2021
Orbit: 553 x 3325 km, 32.9° (Epoch: 23 January)

Event Time Altitude Azimuth Distance (km) Brightness Sun altitude
Rises 17:43:12 0° 229° (SW) 3,172 11.1 -12.2°
Reaches altitude 10° 17:45:21 10° 221° (SW) 2,451 10.1 -12.6°
Maximum altitude 17:50:42 38° 153° (SSE) 1,666 8.1 -13.6°
Enters shadow 17:57:25 16° 95° (E) 3,366 9.2 -14.9°
Drops below altitude 10° 17:59:28 10° 90° (E) 4,037 - -15.3°
Sets 18:04:02 0° 84° (E) 5,528 - -16.1°
